Tracking 25734 objects as of 28-May-2022
HD Live streaming from Space Station
objects crossing your sky now

CICERO 10

Track CICERO 10 now!
10-day predictions


NORAD ID: 43690
Int'l Code: 2018-088A
Perigee: 490.7 km
Apogee: 507.6 km
Inclination: 85.0 °
Period: 94.5 minutes
Semi major axis: 6870 km
RCS: Unknown
Launch date: November 11, 2018
Source: United States (US)
Launch site: Rocket Lab Launch Complex (RLLC)
aabbcc
Your satellite tracking list
Your tracking list is empty




NASA's NSSDC Master Catalog

Two Line Element Set (TLE):
1 43690U 18088A   22148.02193483  .00009631  00000-0  38849-3 0  9998
2 43690  85.0348 329.9022 0012238 215.9426 144.0996 15.24592488196629
Source of the keplerian elements: AFSPC